Showing default

COSMOS 2215, 22186

Orbit data source: Space-Track

COSMOS 2215, 22186 is a payload satellite owned by VKS (CIS) in LEO that was launched on Tue, 20 Oct 1992 UTC via a TSIKLON-3 launch vehicle from the Plesetsk Missile And Space Complex (PKMTR). Payload-class satellites include a variety of spacecraft equipped with specific instruments for various scientific and technological missions. These include communications satellites like Starlink; space stations such as the ISS; scientific satellites like the Hubble; Earth observation satellites from companies like Planet Labs, Umbra, and HawkEye 360; GPS; miniature CubeSats for education and research; and military/defense satellites.

Loading next visibility...
Identifier
22186, 1992-068E
Orbit
LEO
Country
Flag of CISCIS
Related business
Manufacturer
NPO PM
Mission
Defense Communications
Bus & Motor
STRELA-3, Unknown motor
Mass
225 kg wet, 225 kg dry
Launch date (UTC)
1992-10-20 (33 years ago)
Launch vehicle
TSIKLON-3
Launch site
Plesetsk Missile And Space Complex (PKMTR)
Object type
Payload
Rocket body
Debris
Shape & HBR
Cyl, 0.8 m
Radar Cross Section
1.257 m², Medium (>0.1 m² and < 1m²)

Expand to show TLE details & history
Last TLE update: 8 hours ago

TLE from 8 hours ago
0 COSMOS 2215
1 22186U 92068E   25315.27199192  .00000041  00000-0  17589-3 0  9998
2 22186  82.5986 151.0161 0012095 313.0227  46.9849 12.60955474521404
Epoch: 2025-11-11T06:31Z
TLE epoch observation values (Epoch: 2025-11-11T06:31:40.101Z)
Latitude
-0.00007°
Longitude
2.43807°
Altitude
1,415.303 km
Speed
7.156 km/s
True Right ascension
10h 04m 03s
True Declination
0° 00' 00"
Sunlit
Object was in daylight at epoch
Visualization orbit readout
Latitude
Unknown
Longitude
Unknown
Altitude
Unknown
Speed
Unknown
Apparent Right ascension
Unknown
Apparent Declination
Unknown
Sunlit
N/A
Visualization observer readout
Local Sidereal Time
11:13:08
Azimuth
Unknown
Elevation
Unknown
Doppler factor
Unknown
Orbital elements
Apogee altitude
1,425.752 km
Perigee altitude
1,406.898 km
Semi-major axis
7,794.462 km
Eccentricity
0.00121
Inclination
82.5986°
RAAN
151.0161°
Arg. of periapsis
313.0227°
True anomaly
47.08634°
Mean anomaly
46.9849°
Eccentric anomaly
47.03561°
Mean motion
3.15402 °/min
Orbital period
114.14 mins
BSTAR
0.00017589
Loading maneuver chart data...
Computing Atmospheric mass density...
Loading historical data...
Loading historical data...
Loading historical data...
Loading historical data...
Loading historical data...
Loading historical data...
Loading historical data...

Documentation

Showing up to 5 results
|